La Motte, IA

1:44 AM CDT on July 29, 2016 (GMT -0500)
Dubuque Regional

Weather History for KDBQ - June, 2013

Change the Weather History Date:

Sunday, June 23, 2013

  Actual Average Record
Temperature  
Mean Temperature 74 °F 70 °F  
Max Temperature 82 °F 81 °F 96 °F (1923)
Min Temperature 65 °F 60 °F 45 °F (1972)
Degree Days  
Heating Degree Days 0 1  
Month to date heating degree days 39 38  
Since 1 June heating degree days 39 38  
Since 1 July heating degree days 7296 7084  
Cooling Degree Days 9 6  
Month to date cooling degree days 72 94  
Year to date cooling degree days 117 131  
Since 1 June cooling degree days 72 94  
Growing Degree Days 23 (Base 50)    
Moisture  
Dew Point 66 °F    
Average Humidity 79    
Maximum Humidity 100    
Minimum Humidity 58    
Precipitation  
Precipitation T in 0.15 in 3.48 in (1892)
Month to date precipitation 2.69 3.41  
Year to date precipitation 24.27 16.28  
Snow  
Snow 0.00 in 0.00 in - ()
Month to date snowfall 0.0 0.0  
Since 1 June snowfall 0.0 0.0  
Since 1 July snowfall 54.5 41.9  
Snow Depth 0.00 in    
Sea Level Pressure  
Sea Level Pressure 29.96 in    
Wind  
Wind Speed 11 mph (South)    
Max Wind Speed 23 mph    
Max Gust Speed 31 mph    
Visibility 10 miles    
Events Thunderstorm    
T = Trace of Precipitation, MM = Missing Value Source: NWS Daily Summary

Daily Weather History Graph

Daily Weather History Graph

Search for Another Location

Airport or City:

Trip Planner

Search our weather history database for the weather conditions in past years. The results will help you decide how hot, cold, wet, or windy it might be!

Date:

Astronomy

Jun. 23, 2013 Rise Set
Actual Time 5:26 AM CDT 8:43 PM CDT
Civil Twilight 4:51 AM CDT 9:18 PM CDT
Nautical Twilight 4:06 AM CDT 10:03 PM CDT
Astronomical Twilight 3:11 AM CDT 10:58 PM CDT
Moon 8:54 PM CDT (6/23) 5:45 AM CDT (6/23)
Length of Visible Light 16h 26m
Length of Day
15h 17m
Full, 100% of the Moon is Illuminated
Jun 23
Full
Jun 29
Last Quarter
Jul 8
New
Jul 15
First Quarter
Jul 22
Full

Hourly Weather History & Observations

Time (CDT) Temp. Heat Index Dew Point Humidity Pressure Visibility Wind Dir Wind Speed Gust Speed Precip Events Conditions
12:47 AM 71.6 °F - 68.0 °F 88% 30.04 in 10.0 mi NE 13.8 mph 24.2 mph N/A   Mostly Cloudy
12:53 AM 71.1 °F - 68.0 °F 90% 30.02 in 10.0 mi NNE 13.8 mph - N/A   Mostly Cloudy
1:15 AM 69.8 °F - 62.6 °F 78% 30.04 in 10.0 mi ENE 12.7 mph 21.9 mph N/A Thunderstorm Overcast
1:30 AM 69.8 °F - 62.6 °F 78% 30.05 in 10.0 mi NE 13.8 mph - N/A   Overcast
1:53 AM 68.0 °F - 62.1 °F 81% 30.03 in 8.0 mi NE 13.8 mph 24.2 mph N/A   Overcast
2:40 AM 68.0 °F - 62.6 °F 83% 30.00 in 8.0 mi East 10.4 mph - N/A   Overcast
2:53 AM 68.0 °F - 62.1 °F 81% 29.98 in 8.0 mi SE 10.4 mph - N/A   Mostly Cloudy
3:53 AM 66.0 °F - 62.1 °F 87% 29.99 in 9.0 mi ENE 3.5 mph - N/A   Partly Cloudy
4:53 AM 66.0 °F - 63.0 °F 90% 29.99 in 9.0 mi NE 4.6 mph 17.3 mph N/A   Mostly Cloudy
5:53 AM 64.9 °F - 64.0 °F 97% 29.93 in 7.0 mi Calm Calm - N/A   Clear
6:53 AM 66.9 °F - 64.9 °F 93% 29.92 in 10.0 mi SSE 11.5 mph - N/A   Clear
7:53 AM 71.1 °F - 66.9 °F 87% 29.94 in 10.0 mi South 16.1 mph 21.9 mph N/A   Clear
8:53 AM 73.9 °F - 66.9 °F 79% 29.94 in 10.0 mi South 16.1 mph 24.2 mph N/A   Clear
9:53 AM 75.9 °F - 68.0 °F 76% 29.93 in 10.0 mi South 13.8 mph 23.0 mph N/A   Clear
10:53 AM 79.0 °F - 71.1 °F 77% 29.96 in 10.0 mi SSW 16.1 mph - N/A   Clear
11:53 AM 78.1 °F - 70.0 °F 76% 29.95 in 10.0 mi SW 15.0 mph - N/A   Overcast
12:27 PM 75.2 °F - 66.2 °F 73% 29.99 in 10.0 mi WNW 15.0 mph 31.1 mph 0.00 in   Mostly Cloudy
12:34 PM 75.2 °F - 64.4 °F 69% 29.99 in 10.0 mi NW 9.2 mph - 0.00 in   Mostly Cloudy
12:53 PM 79.0 °F - 64.9 °F 62% 29.96 in 10.0 mi West 9.2 mph - 0.00 in   Clear
1:53 PM 80.1 °F 81.9 °F 64.9 °F 60% 29.86 in 10.0 mi South 13.8 mph - N/A   Clear
2:53 PM 80.1 °F 82.1 °F 66.0 °F 62% 29.85 in 10.0 mi South 13.8 mph - N/A   Clear
3:53 PM 82.0 °F 84.1 °F 66.0 °F 58% 29.88 in 10.0 mi South 11.5 mph - N/A   Clear
4:53 PM 81.0 °F 82.7 °F 64.9 °F 58% 29.88 in 10.0 mi South 9.2 mph - N/A   Clear
5:53 PM 80.1 °F 82.1 °F 66.0 °F 62% 29.91 in 10.0 mi SSW 11.5 mph - N/A   Clear
6:53 PM 77.0 °F - 64.9 °F 66% 29.92 in 10.0 mi South 9.2 mph - N/A   Clear
7:53 PM 75.9 °F - 66.0 °F 71% 29.93 in 10.0 mi South 9.2 mph - N/A   Clear
8:53 PM 73.9 °F - 66.9 °F 79% 29.93 in 10.0 mi South 9.2 mph - N/A   Clear
9:53 PM 72.0 °F - 66.0 °F 81% 29.94 in 10.0 mi South 9.2 mph - N/A   Clear
10:53 PM 71.1 °F - 66.0 °F 84% 29.96 in 10.0 mi SSW 8.1 mph - N/A   Clear
11:53 PM 70.0 °F - 66.9 °F 90% 29.96 in 10.0 mi SSW 9.2 mph - N/A   Clear